z/d,0,0,50,50,100,100,200,200,300,300,400,400,500,500,750,750,1000,1000,2000,2000,3000,3000,4000,4000,4700,4700
2016.08.24-01:00,.50,81.04,.91,73.10,1.11,77.48,1.12,80.86,1.13,78.80,1.03,78.30,.97,81.57,.70,79.81,.47,98.37,.31,101.55,.13,56.84,.21,45.73,.04,90.00
2016.08.24-02:00,.48,79.34,.96,75.38,1.13,77.78,1.14,79.46,1.16,78.31,1.05,77.27,.96,80.42,.71,79.50,.45,95.85,.31,99.71,.15,59.34,.22,50.67,.05,90.00
2016.08.24-03:00,.48,74.13,1.01,77.50,1.15,78.06,1.16,78.46,1.16,78.25,1.05,76.17,.94,78.94,.71,80.10,.43,92.43,.31,98.09,.15,61.40,.22,54.51,.05,90.00
2016.08.24-04:00,.52,62.93,1.03,78.06,1.15,77.94,1.15,77.83,1.15,78.60,1.04,75.28,.92,77.77,.71,82.46,.43,89.23,.31,97.46,.14,62.30,.19,56.43,.04,90.00
2016.08.24-05:00,.60,48.48,1.03,76.92,1.13,77.25,1.14,77.34,1.13,79.14,1.03,74.75,.90,77.19,.71,86.26,.43,86.94,.30,98.76,.11,62.19,.15,55.92,.03,90.00
2016.08.24-06:00,.74,40.36,1.04,75.94,1.12,76.64,1.13,77.34,1.12,79.96,1.04,74.92,.89,77.23,.69,90.47,.42,84.81,.29,101.66,.09,61.34,.12,52.48,.02,90.00
2016.08.24-07:00,.88,39.27,1.05,76.37,1.11,76.68,1.12,77.83,1.10,81.05,1.04,75.81,.88,77.85,.64,94.43,.41,82.65,.28,105.16,.07,59.02,.09,44.40,.02,90.00
2016.08.24-08:00,.95,40.42,1.05,78.57,1.11,77.71,1.11,78.89,1.07,82.39,1.04,77.46,.87,79.19,.58,97.66,.42,81.12,.28,108.29,.06,55.16,.08,32.84,.01,90.00
2016.08.24-09:00,.98,41.76,1.02,81.68,1.09,79.15,1.09,80.09,1.04,83.45,1.03,79.38,.86,80.87,.53,98.84,.43,80.54,.28,109.94,.07,53.72,.09,25.60,.01,90.00
2016.08.24-10:00,.98,39.10,.93,82.88,1.04,79.23,1.06,80.23,1.01,83.35,1.03,80.99,.88,82.42,.51,97.84,.48,82.31,.29,109.91,.08,52.37,.10,20.75,.00,90.00
2016.08.24-11:00,1.00,35.43,.83,80.99,1.01,77.77,1.06,79.36,1.01,82.16,1.05,82.31,.91,83.72,.50,95.62,.52,85.81,.30,109.06,.09,51.97,.12,19.18,.01,90.00
2016.08.24-12:00,1.10,35.85,.80,78.36,1.04,76.58,1.08,78.48,1.03,80.66,1.07,83.33,.92,84.27,.48,91.39,.54,88.58,.30,108.05,.11,56.10,.15,24.22,.01,90.00
2016.08.24-13:00,1.20,41.34,.84,77.78,1.09,76.70,1.12,77.93,1.05,79.08,1.06,83.74,.91,83.41,.45,82.90,.52,88.93,.30,106.98,.13,63.99,.17,33.58,.02,90.00
2016.08.24-14:00,1.27,48.99,.87,78.96,1.13,77.70,1.14,77.63,1.07,77.56,1.05,83.52,.90,81.30,.45,71.76,.50,87.15,.30,106.04,.14,72.29,.18,41.89,.03,90.00
2016.08.24-15:00,1.30,56.33,.89,79.59,1.14,78.48,1.15,77.38,1.08,76.30,1.02,83.02,.88,79.08,.50,64.71,.51,85.91,.29,105.45,.13,78.79,.17,45.75,.03,90.00
2016.08.24-16:00,1.33,63.48,.90,79.10,1.14,78.84,1.14,77.23,1.07,75.61,.98,82.53,.86,77.38,.56,62.88,.52,86.82,.28,105.26,.11,83.30,.15,45.66,.03,90.00
2016.08.24-17:00,1.34,70.72,.90,77.64,1.12,79.01,1.13,77.31,1.07,75.79,.93,82.13,.84,76.34,.59,64.35,.52,89.65,.27,106.07,.08,85.89,.13,42.15,.02,90.00
2016.08.24-18:00,1.33,78.41,.92,75.30,1.11,79.00,1.13,77.53,1.06,76.56,.90,81.47,.83,75.75,.62,67.53,.51,93.56,.25,107.84,.05,86.17,.12,36.41,.01,90.00
2016.08.24-19:00,1.26,82.52,.93,72.90,1.09,78.74,1.11,77.73,1.05,77.20,.87,80.04,.82,75.09,.63,71.24,.49,97.79,.25,109.57,.03,77.74,.10,29.92,.01,90.00
2016.08.24-20:00,1.17,86.16,.94,71.84,1.06,78.90,1.09,78.33,1.03,77.96,.85,78.35,.81,74.70,.64,75.24,.48,101.91,.24,110.44,.02,44.43,.10,24.40,.01,90.00
2016.08.24-21:00,1.05,91.20,.94,72.00,1.04,79.67,1.08,79.51,1.03,79.04,.85,76.90,.82,74.85,.64,78.61,.46,104.37,.25,110.21,.03,27.77,.10,24.67,.01,90.00
2016.08.24-22:00,.89,94.76,.92,70.73,1.00,79.48,1.07,80.35,1.02,79.76,.87,75.74,.86,75.71,.66,81.29,.45,104.64,.26,109.04,.04,30.64,.11,28.20,.01,90.00
2016.08.24-23:00,.70,93.40,.91,68.31,.98,78.17,1.06,80.74,1.03,80.26,.91,75.36,.90,77.66,.69,83.90,.45,103.73,.27,107.60,.06,35.28,.12,31.53,.01,90.00
2016.08.24-24:00,.58,88.33,.94,67.06,.99,76.58,1.06,80.52,1.04,80.20,.94,75.17,.94,79.74,.71,85.69,.44,101.69,.28,105.62,.08,41.45,.15,35.93,.02,90.00
2016.08.25-01:00,.52,82.87,.99,67.95,1.02,75.34,1.07,79.60,1.04,79.34,.97,74.54,.96,81.08,.71,86.24,.43,98.76,.30,103.35,.11,48.17,.17,41.46,.03,90.00
2016.08.25-02:00,.50,76.76,1.06,70.18,1.07,74.49,1.10,78.34,1.06,78.04,1.00,73.69,.95,81.45,.69,85.80,.40,94.90,.31,101.12,.14,55.23,.19,47.82,.04,90.00
2016.08.25-03:00,.53,69.51,1.12,72.46,1.13,74.03,1.13,77.42,1.09,77.13,1.03,73.25,.94,81.14,.67,84.92,.37,89.54,.31,98.88,.15,60.59,.20,53.07,.04,90.00
2016.08.25-04:00,.58,61.31,1.16,74.08,1.17,74.03,1.15,77.21,1.10,77.06,1.05,73.48,.92,80.57,.65,84.59,.36,83.62,.32,97.01,.15,64.38,.19,56.73,.04,90.00
2016.08.25-05:00,.65,53.43,1.17,75.06,1.17,74.31,1.15,77.43,1.10,77.44,1.06,74.04,.90,79.78,.64,85.42,.38,79.19,.32,96.53,.14,66.51,.17,57.79,.04,90.00
2016.08.25-06:00,.74,47.04,1.16,76.21,1.17,74.92,1.13,77.83,1.09,77.81,1.06,74.70,.88,78.78,.63,87.17,.40,76.62,.32,97.86,.12,66.74,.13,54.66,.03,90.00
2016.08.25-07:00,.85,44.48,1.16,78.09,1.16,75.84,1.11,78.19,1.07,78.02,1.05,75.39,.86,77.71,.61,89.42,.42,75.18,.32,100.91,.09,65.46,.10,46.02,.01,90.00
2016.08.25-08:00,.94,45.44,1.17,80.65,1.15,77.19,1.08,78.64,1.04,78.36,1.03,76.50,.83,77.19,.56,92.14,.44,75.03,.31,104.82,.08,62.14,.08,32.62,.01,90.00
2016.08.25-09:00,1.01,47.17,1.17,83.59,1.15,78.86,1.06,79.22,1.01,78.81,1.01,78.02,.81,77.39,.52,94.64,.45,76.24,.31,108.82,.07,55.85,.09,20.15,.00,270.00
2016.08.25-10:00,1.03,45.93,1.11,85.50,1.12,79.90,1.03,79.33,.99,78.95,.99,79.64,.81,78.28,.49,95.82,.48,78.90,.30,112.07,.07,49.32,.10,13.63,.00,270.00
2016.08.25-11:00,1.04,41.44,1.00,84.88,1.07,79.55,1.00,78.58,.97,78.58,.99,81.21,.83,79.84,.48,95.66,.52,83.25,.30,114.03,.08,43.42,.12,11.30,.00,270.00
2016.08.25-12:00,1.06,37.94,.90,82.22,1.04,78.51,.99,77.40,.97,77.76,.99,82.42,.85,81.25,.47,93.68,.55,87.79,.29,114.99,.09,42.63,.15,14.37,.00,270.00
2016.08.25-13:00,1.09,39.21,.87,80.52,1.05,78.41,1.01,76.41,.99,76.76,.99,82.99,.87,81.58,.45,87.99,.54,90.77,.28,114.79,.11,48.35,.17,22.58,.01,90.00
2016.08.25-14:00,1.11,46.36,.88,81.76,1.07,79.88,1.03,75.88,1.01,75.96,.98,83.07,.86,80.73,.43,77.54,.51,91.20,.27,112.65,.12,58.73,.19,34.26,.02,90.00
2016.08.25-15:00,1.12,55.79,.89,83.89,1.09,81.75,1.06,75.55,1.03,75.44,.96,82.85,.85,79.17,.45,65.90,.48,89.79,.25,108.25,.12,68.84,.19,45.31,.03,90.00
2016.08.25-16:00,1.15,64.02,.90,84.37,1.09,82.75,1.08,75.31,1.05,75.25,.94,82.56,.83,77.79,.50,59.42,.46,89.48,.24,103.38,.11,75.91,.18,52.25,.03,90.00
2016.08.25-17:00,1.20,70.39,.90,81.91,1.08,82.25,1.09,75.20,1.05,75.49,.91,82.35,.82,77.08,.55,58.82,.46,91.38,.24,99.68,.09,79.71,.15,54.76,.03,90.00
2016.08.25-18:00,1.23,76.19,.89,76.33,1.05,80.01,1.09,74.96,1.05,75.92,.87,81.90,.80,76.76,.59,61.92,.46,94.66,.25,98.09,.07,80.27,.12,53.03,.02,90.00
2016.08.25-19:00,1.18,78.62,.89,70.68,1.01,77.23,1.08,74.66,1.03,76.18,.84,80.38,.78,75.75,.63,66.27,.45,98.28,.26,98.83,.04,77.01,.10,47.70,.01,90.00
2016.08.25-20:00,1.12,81.29,.92,68.04,.99,75.53,1.07,74.89,1.01,76.54,.80,78.02,.76,74.11,.64,70.92,.44,101.61,.26,100.88,.03,60.38,.08,38.42,.01,90.00
2016.08.25-21:00,1.05,84.60,.95,67.76,.99,75.08,1.06,75.86,1.00,77.40,.79,75.65,.75,72.65,.65,75.39,.42,103.74,.27,103.79,.03,33.26,.07,28.49,.00,90.00
2016.08.25-22:00,.95,86.57,.98,68.06,.98,75.08,1.06,77.32,.99,78.64,.80,73.88,.77,71.97,.66,78.79,.40,103.41,.28,106.52,.03,25.95,.08,24.85,.00,90.00
2016.08.25-23:00,.84,86.80,.98,67.59,.97,74.36,1.06,78.70,.99,80.04,.83,73.38,.81,73.10,.67,82.47,.39,101.95,.28,108.22,.05,26.37,.09,23.56,.00,90.00
2016.08.25-24:00,.73,84.36,.99,66.61,.98,72.74,1.06,79.35,.99,81.04,.87,73.45,.86,75.21,.69,86.25,.39,100.38,.29,108.50,.07,30.43,.11,25.18,.01,90.00
2016.08.26-01:00,.67,80.20,1.03,66.53,1.01,71.19,1.06,79.17,.99,81.07,.90,72.99,.89,76.79,.68,88.63,.37,98.15,.30,107.88,.10,40.11,.14,32.95,.01,90.00
2016.08.26-02:00,.67,76.65,1.10,68.16,1.08,70.80,1.08,78.68,1.00,80.07,.94,71.85,.90,77.25,.64,88.57,.34,93.34,.31,106.51,.12,50.20,.16,42.64,.02,90.00
2016.08.26-03:00,.67,73.35,1.15,70.40,1.13,71.37,1.09,78.34,1.00,78.61,.97,70.72,.91,76.89,.62,85.98,.33,85.18,.31,104.39,.14,57.44,.18,50.07,.03,90.00
2016.08.26-04:00,.68,66.86,1.17,71.62,1.17,72.18,1.10,78.30,1.01,77.48,1.01,70.59,.93,76.79,.62,83.14,.35,77.90,.32,102.03,.15,61.26,.17,54.02,.03,90.00
2016.08.26-05:00,.73,59.57,1.19,72.05,1.19,73.30,1.10,78.74,1.02,77.06,1.04,71.64,.93,77.33,.63,81.74,.39,73.93,.32,100.20,.14,62.82,.16,55.24,.03,90.00
2016.08.26-06:00,.82,54.55,1.21,72.54,1.20,74.83,1.10,79.50,1.03,77.10,1.06,73.31,.92,78.14,.62,81.71,.42,72.28,.32,99.34,.13,62.81,.14,53.53,.02,90.00
2016.08.26-07:00,.92,52.30,1.23,73.49,1.20,76.35,1.07,79.85,1.03,76.85,1.06,74.94,.90,78.86,.61,82.98,.44,72.43,.31,99.84,.12,61.45,.12,47.74,.01,90.00
2016.08.26-08:00,.98,51.99,1.26,75.42,1.19,77.86,1.03,79.63,1.01,76.30,1.04,76.53,.86,79.59,.58,85.68,.46,74.14,.31,101.65,.10,58.45,.11,37.67,.01,90.00
2016.08.26-09:00,1.05,53.16,1.29,78.16,1.17,79.37,.99,78.93,.98,75.63,1.00,78.11,.82,80.23,.55,89.26,.47,76.94,.30,104.45,.09,54.10,.11,26.59,.00,270.00
2016.08.26-10:00,1.09,54.49,1.29,81.10,1.14,80.63,.95,77.81,.95,75.06,.96,79.71,.79,80.74,.51,92.74,.47,80.41,.29,107.76,.08,48.99,.11,18.13,.01,270.00
2016.08.26-11:00,1.10,53.08,1.24,83.23,1.09,80.99,.93,76.15,.94,74.62,.94,81.29,.77,81.36,.49,95.23,.49,84.31,.28,110.94,.08,44.21,.13,13.81,.01,270.00
2016.08.26-12:00,1.09,49.16,1.15,84.09,1.04,80.18,.92,74.16,.94,74.17,.92,82.68,.77,82.19,.46,95.79,.50,88.29,.28,113.50,.09,41.72,.14,13.92,.01,270.00
2016.08.26-13:00,1.09,46.14,1.05,84.52,1.00,78.91,.93,72.23,.96,73.63,.91,83.46,.78,82.52,.43,92.56,.49,90.92,.27,115.27,.09,44.94,.16,19.58,.00,90.00
2016.08.26-14:00,1.12,48.71,.99,86.54,1.00,78.89,.96,71.25,.98,73.64,.90,83.64,.78,81.84,.40,83.86,.47,91.06,.25,115.34,.10,53.65,.17,30.61,.01,90.00
2016.08.26-15:00,1.15,56.15,.96,90.17,1.01,80.29,1.00,71.33,1.01,74.31,.89,83.28,.77,80.05,.40,70.78,.43,88.72,.23,112.15,.11,64.37,.18,44.06,.03,90.00
2016.08.26-16:00,1.17,64.05,.92,92.74,1.01,81.31,1.03,71.62,1.02,74.92,.87,82.23,.75,77.54,.44,60.68,.42,86.51,.22,105.53,.10,72.48,.17,54.85,.03,90.00
2016.08.26-17:00,1.19,69.94,.84,91.20,.99,80.44,1.05,71.73,1.02,75.24,.84,80.59,.74,75.04,.51,57.67,.44,87.26,.22,98.84,.09,76.26,.15,60.90,.03,90.00
2016.08.26-18:00,1.23,74.73,.78,83.59,.97,77.47,1.06,72.03,1.02,75.74,.81,79.04,.74,73.47,.56,59.63,.45,90.47,.24,94.56,.07,75.16,.12,62.63,.02,90.00
2016.08.26-19:00,1.21,75.44,.76,71.88,.96,73.51,1.07,72.85,1.00,76.69,.80,77.84,.73,72.84,.61,63.88,.45,94.38,.25,92.91,.05,67.34,.09,60.20,.01,90.00
2016.08.26-20:00,1.23,77.07,.83,63.33,.97,70.39,1.07,73.96,.98,77.48,.78,76.03,.73,71.72,.62,68.40,.44,98.47,.27,94.05,.04,48.55,.07,51.32,.01,90.00
2016.08.26-21:00,1.28,79.76,.94,60.86,1.00,69.22,1.06,75.31,.95,77.81,.76,73.38,.72,69.82,.61,72.55,.41,102.22,.28,97.22,.04,28.14,.06,36.01,.00,90.00
2016.08.26-22:00,1.26,83.41,1.03,60.87,1.03,69.62,1.06,77.14,.93,78.21,.77,71.22,.72,68.43,.60,76.00,.37,103.80,.29,101.08,.04,20.44,.05,22.30,.00,270.00
2016.08.26-23:00,1.16,86.84,1.08,60.88,1.05,70.12,1.05,78.90,.92,78.69,.79,70.44,.75,68.68,.60,79.33,.34,103.02,.29,104.85,.05,19.88,.06,12.52,.01,270.00
2016.08.26-24:00,1.01,89.37,1.10,60.71,1.05,69.87,1.03,79.94,.91,78.97,.83,70.74,.79,70.36,.61,82.83,.32,100.71,.30,108.01,.06,23.21,.08,9.45,.01,270.00
2016.08.27-01:00,.85,90.98,1.13,61.32,1.06,69.48,1.01,80.26,.91,78.68,.86,71.13,.84,72.31,.62,85.10,.32,96.46,.31,110.31,.08,32.02,.10,15.69,.01,270.00
2016.08.27-02:00,.74,90.99,1.17,63.36,1.10,69.80,1.01,80.09,.92,77.70,.90,71.18,.87,74.02,.61,85.84,.31,90.75,.31,111.87,.10,41.76,.12,25.73,.00,90.00
2016.08.27-03:00,.66,87.72,1.22,65.91,1.15,70.73,1.01,79.47,.95,76.19,.94,70.95,.91,75.34,.61,85.35,.32,84.64,.30,112.34,.12,49.42,.14,34.59,.01,90.00
2016.08.27-04:00,.62,79.09,1.26,68.00,1.19,72.20,1.02,78.90,.97,74.95,.98,71.09,.93,76.61,.61,84.02,.34,78.74,.30,110.94,.14,55.33,.16,41.82,.01,90.00
2016.08.27-05:00,.64,66.66,1.31,69.67,1.23,74.45,1.02,78.94,1.00,74.65,1.01,72.11,.94,78.01,.61,82.15,.37,73.21,.29,107.88,.15,60.31,.17,48.33,.02,90.00
2016.08.27-06:00,.75,56.61,1.36,71.02,1.25,77.10,1.02,79.29,1.02,75.23,1.02,73.74,.92,79.32,.60,80.52,.40,69.45,.29,104.29,.15,63.33,.16,52.56,.02,90.00
2016.08.27-07:00,.90,51.86,1.40,72.08,1.25,79.51,.99,79.18,1.03,76.09,1.02,75.35,.89,80.32,.59,80.26,.43,68.76,.28,101.39,.14,64.00,.15,53.19,.02,90.00
2016.08.27-08:00,1.02,52.79,1.45,73.50,1.23,81.37,.96,78.04,1.01,76.48,.99,76.39,.85,80.75,.58,81.51,.46,70.38,.28,99.97,.13,62.99,.14,50.31,.01,90.00
2016.08.27-09:00,1.11,58.21,1.51,76.34,1.20,82.77,.93,75.84,.98,76.06,.96,76.76,.80,80.49,.55,83.95,.47,73.41,.27,100.51,.12,60.94,.13,44.62,.01,90.00
2016.08.27-10:00,1.15,64.37,1.53,80.60,1.14,83.61,.91,73.06,.96,75.26,.93,76.93,.76,79.87,.52,86.92,.48,77.12,.26,102.61,.11,57.68,.12,36.48,.00,90.00
2016.08.27-11:00,1.13,68.47,1.49,84.93,1.07,83.53,.91,70.51,.94,74.76,.91,77.63,.73,79.66,.49,89.71,.48,80.98,.25,105.02,.09,53.27,.12,27.63,.00,270.00
2016.08.27-12:00,1.06,68.64,1.39,88.15,.99,82.20,.91,68.56,.92,74.54,.88,79.03,.71,80.26,.46,91.75,.48,85.03,.24,106.86,.08,48.46,.12,21.35,.00,270.00
2016.08.27-13:00,.98,65.68,1.25,90.31,.93,79.55,.93,67.19,.91,74.15,.87,80.49,.70,80.98,.43,91.54,.49,88.88,.24,107.85,.08,44.95,.13,19.69,.00,270.00
2016.08.27-14:00,.92,63.69,1.13,92.77,.90,76.81,.95,66.84,.92,73.69,.85,81.25,.69,80.57,.40,86.98,.47,91.43,.23,107.91,.08,46.18,.13,24.55,.00,90.00
2016.08.27-15:00,.90,66.08,1.04,96.48,.91,75.40,1.00,67.86,.94,73.60,.85,81.04,.69,78.30,.38,77.10,.44,92.09,.22,106.63,.08,52.91,.14,35.95,.01,90.00
2016.08.27-16:00,.91,70.84,.95,99.89,.93,74.88,1.04,69.62,.96,73.70,.85,79.94,.70,74.89,.39,65.61,.41,91.34,.22,103.40,.09,59.52,.14,48.35,.02,90.00
2016.08.27-17:00,.92,73.92,.84,100.48,.95,73.71,1.07,71.08,.98,73.46,.85,78.25,.72,71.84,.45,59.55,.39,90.85,.22,99.26,.09,61.15,.13,55.90,.02,90.00
2016.08.27-18:00,.97,76.15,.71,95.23,.95,71.47,1.07,72.36,.98,73.50,.84,76.92,.74,70.32,.51,59.45,.40,91.20,.24,95.76,.08,57.91,.12,58.40,.02,90.00
2016.08.27-19:00,.99,74.05,.65,82.03,.96,68.67,1.06,73.93,.98,74.45,.83,76.61,.76,70.42,.56,61.91,.40,91.85,.26,93.34,.08,53.03,.10,58.59,.01,90.00
2016.08.27-20:00,1.07,72.30,.70,68.70,.98,66.51,1.05,75.69,.96,75.85,.81,76.47,.76,70.70,.59,64.56,.38,92.50,.27,92.68,.08,48.90,.08,57.21,.01,90.00
2016.08.27-21:00,1.14,73.39,.81,62.05,1.03,65.74,1.03,77.01,.94,76.58,.79,75.18,.76,70.09,.60,67.32,.35,93.60,.28,94.63,.07,44.01,.06,49.07,.00,90.00
2016.08.27-22:00,1.16,75.65,.90,57.98,1.07,66.14,1.02,77.84,.93,76.84,.78,73.50,.76,69.64,.60,70.83,.33,94.61,.28,98.59,.07,38.30,.05,30.18,.01,270.00
2016.08.27-23:00,1.13,77.41,.98,55.07,1.11,67.25,1.00,78.37,.91,77.13,.78,72.48,.77,70.24,.60,75.16,.32,94.85,.28,103.80,.06,32.71,.05,7.79,.01,270.00
2016.08.27-24:00,1.08,78.86,1.07,54.19,1.14,68.99,1.00,78.78,.90,77.59,.78,72.29,.77,71.81,.59,79.58,.31,93.85,.28,109.53,.06,30.58,.07,359.00,.02,270.00
2016.08.28-01:00,1.01,80.56,1.14,54.88,1.17,70.86,.99,78.87,.90,77.82,.80,72.46,.78,73.86,.58,83.26,.30,91.51,.27,114.77,.07,34.89,.09,3.43,.02,270.00
2016.08.28-02:00,.92,81.60,1.18,56.05,1.17,72.19,.98,78.16,.89,77.23,.81,72.29,.79,75.66,.56,85.76,.30,88.48,.27,118.46,.08,42.23,.11,13.06,.01,270.00
2016.08.28-03:00,.81,81.15,1.22,57.72,1.18,73.40,.99,77.13,.90,76.09,.84,71.79,.81,77.03,.56,86.60,.32,84.92,.26,119.86,.10,49.12,.13,23.78,.00,270.00
2016.08.28-04:00,.72,78.06,1.25,59.91,1.19,74.94,1.00,76.60,.93,75.13,.88,71.42,.84,78.02,.56,85.39,.34,80.15,.25,118.20,.12,55.39,.14,35.08,.00,90.00
2016.08.28-05:00,.67,70.88,1.30,62.02,1.20,76.76,1.01,76.87,.95,74.87,.92,71.62,.85,78.80,.56,82.67,.37,74.69,.24,113.32,.13,60.78,.15,45.90,.01,90.00
2016.08.28-06:00,.69,61.09,1.35,63.94,1.20,78.66,1.02,77.69,.97,75.31,.95,72.51,.85,79.52,.56,79.81,.40,70.56,.24,106.57,.14,63.96,.16,53.67,.02,90.00
2016.08.28-07:00,.80,54.83,1.44,66.44,1.20,80.38,1.00,78.24,.98,75.79,.96,73.46,.83,79.68,.57,77.98,.43,69.24,.25,100.40,.15,64.68,.16,57.05,.02,90.00
2016.08.28-08:00,.93,53.81,1.54,69.82,1.19,81.63,.97,77.74,.97,75.69,.95,73.77,.79,78.72,.56,77.60,.45,70.41,.25,96.23,.15,63.82,.16,56.78,.02,90.00
2016.08.28-09:00,1.02,54.51,1.61,73.79,1.16,82.34,.94,76.10,.94,75.00,.93,73.71,.76,77.07,.55,78.85,.46,72.90,.25,93.90,.14,62.15,.14,54.16,.02,90.00
2016.08.28-10:00,1.03,54.71,1.62,78.62,1.10,82.31,.91,73.76,.93,74.20,.92,73.98,.74,75.72,.55,81.69,.47,76.04,.24,93.06,.12,59.26,.13,49.04,.01,90.00
2016.08.28-11:00,1.01,54.63,1.57,84.17,1.03,81.22,.91,71.43,.93,73.68,.92,74.75,.73,74.88,.53,84.97,.46,79.39,.23,93.63,.10,54.76,.11,40.87,.00,90.00
2016.08.28-12:00,.98,53.35,1.48,89.45,.98,79.22,.92,69.70,.93,73.59,.91,76.10,.72,74.72,.49,87.72,.45,82.98,.22,95.50,.09,47.84,.10,29.43,.00,270.00
2016.08.28-13:00,.94,50.35,1.35,93.71,.94,76.59,.93,68.46,.91,73.54,.89,77.79,.71,75.17,.44,89.18,.44,86.95,.22,98.37,.08,39.34,.10,18.79,.01,270.00
2016.08.28-14:00,.91,48.40,1.20,97.49,.93,73.92,.95,67.69,.90,73.12,.87,79.13,.69,75.42,.40,87.76,.43,90.49,.22,101.41,.07,34.60,.11,15.31,.01,270.00
2016.08.28-15:00,.89,50.46,1.07,101.19,.94,72.16,.98,67.76,.90,72.50,.85,79.59,.69,74.66,.37,81.85,.40,92.44,.22,103.67,.08,37.33,.11,20.65,.00,270.00
2016.08.28-16:00,.89,56.52,.95,104.13,.97,72.07,1.02,68.92,.92,72.07,.84,79.10,.70,72.80,.36,72.34,.38,92.36,.21,104.50,.09,45.09,.11,32.52,.00,90.00
2016.08.28-17:00,.91,63.43,.83,105.20,.99,72.91,1.05,70.54,.95,71.67,.84,77.74,.72,70.66,.39,64.10,.36,90.89,.21,103.18,.10,51.91,.12,44.70,.01,90.00
2016.08.28-18:00,.96,69.03,.71,102.49,.98,73.10,1.07,71.94,.97,71.25,.85,76.11,.76,69.57,.45,61.51,.36,89.66,.22,100.15,.10,53.98,.11,51.49,.01,90.00
2016.08.28-19:00,.98,70.16,.61,92.97,.96,71.84,1.07,73.32,.98,71.52,.85,75.22,.79,70.13,.51,62.58,.37,88.94,.23,96.99,.11,53.36,.11,53.91,.01,90.00
2016.08.28-20:00,1.02,69.14,.61,78.73,.95,69.62,1.06,75.12,.99,72.89,.85,75.39,.81,71.81,.54,63.94,.36,87.51,.24,94.99,.11,53.31,.09,54.61,.01,90.00
2016.08.28-21:00,1.07,69.23,.68,67.18,.97,67.65,1.05,77.07,.99,74.68,.85,75.83,.82,73.63,.56,65.33,.34,85.74,.25,95.30,.10,53.07,.08,50.98,.00,90.00
2016.08.28-22:00,1.10,70.61,.76,59.02,1.01,66.77,1.04,78.58,.98,76.13,.84,75.94,.82,75.30,.57,67.68,.32,84.92,.25,97.93,.09,51.38,.07,39.27,.00,270.00
2016.08.28-23:00,1.10,72.13,.86,53.62,1.05,67.28,1.03,79.55,.97,77.14,.83,75.87,.80,76.93,.57,71.01,.31,85.01,.24,102.04,.08,48.55,.06,21.25,.01,270.00
2016.08.28-24:00,1.09,74.35,.98,51.56,1.09,69.20,1.01,80.20,.96,77.89,.82,75.79,.78,78.42,.56,74.51,.30,85.08,.23,107.13,.07,45.22,.07,5.76,.02,270.00
2016.08.29-01:00,1.05,76.91,1.08,52.16,1.12,71.78,1.00,80.59,.94,78.45,.81,75.83,.75,79.71,.54,77.66,.29,84.65,.22,112.26,.06,43.35,.07,1.11,.02,270.00
2016.08.29-02:00,.98,78.58,1.15,53.73,1.12,73.77,.98,80.26,.93,78.45,.81,75.72,.73,80.58,.52,80.51,.29,84.24,.21,116.25,.06,44.41,.08,5.66,.02,270.00
2016.08.29-03:00,.90,78.74,1.20,55.67,1.11,74.86,.96,79.10,.92,77.66,.82,75.22,.72,80.72,.51,82.54,.31,83.68,.21,118.05,.07,47.45,.09,14.82,.01,270.00
2016.08.29-04:00,.85,77.72,1.25,58.38,1.11,75.68,.96,77.82,.92,76.63,.84,74.64,.72,80.33,.51,83.01,.33,82.07,.21,117.27,.08,50.81,.11,25.72,.01,270.00
2016.08.29-05:00,.82,75.55,1.29,61.31,1.12,76.33,.98,76.97,.94,75.92,.87,74.14,.73,79.33,.52,81.41,.35,78.56,.21,113.71,.10,55.39,.12,38.30,.00,90.00
2016.08.29-06:00,.83,73.03,1.33,64.27,1.13,77.03,.99,76.85,.97,76.01,.89,73.91,.74,77.70,.53,78.26,.38,73.75,.22,107.94,.13,59.75,.14,50.05,.01,90.00
2016.08.29-07:00,.85,71.62,1.38,67.84,1.14,77.87,1.00,77.04,.99,76.53,.92,73.60,.74,75.22,.54,75.46,.41,70.59,.22,101.44,.15,61.72,.15,57.20,.02,90.00
2016.08.29-08:00,.87,71.42,1.45,72.03,1.14,78.51,1.00,76.80,.99,76.82,.93,72.88,.75,72.12,.56,74.80,.44,70.63,.23,95.77,.16,61.31,.16,59.15,.02,90.00
2016.08.29-09:00,.87,71.70,1.49,76.37,1.14,78.79,.99,76.08,.98,76.86,.93,72.21,.76,69.49,.57,76.50,.46,72.49,.23,91.17,.16,59.73,.15,57.73,.02,90.00
2016.08.29-10:00,.93,77.46,1.50,80.74,1.12,78.84,.97,75.15,.96,76.83,.94,72.09,.78,68.10,.57,79.68,.46,74.69,.23,87.54,.15,57.71,.13,54.03,.01,90.00
2016.08.29-11:00,.91,85.87,1.47,85.24,1.10,78.87,.95,74.06,.94,76.59,.94,72.54,.79,67.83,.54,83.34,.45,76.87,.22,85.75,.13,55.39,.11,47.72,.01,90.00
2016.08.29-12:00,.88,91.16,1.40,89.68,1.08,79.04,.94,72.77,.92,76.00,.93,73.48,.80,68.44,.50,86.56,.43,79.35,.21,86.36,.11,51.60,.10,36.52,.00,270.00
2016.08.29-13:00,.79,96.75,1.28,93.44,1.06,79.30,.94,71.41,.90,75.18,.92,74.98,.80,69.93,.45,88.63,.41,82.43,.19,89.72,.09,45.26,.09,20.72,.01,270.00
2016.08.29-14:00,.68,98.48,1.13,96.09,1.03,79.62,.94,70.19,.89,74.11,.90,76.65,.79,71.90,.40,88.29,.39,85.59,.19,94.22,.08,38.65,.09,9.37,.01,270.00
2016.08.29-15:00,.59,100.22,.99,97.85,.99,80.20,.96,69.48,.88,72.75,.88,77.80,.79,73.52,.36,84.02,.37,88.06,.19,97.98,.07,35.73,.09,7.13,.01,270.00
2016.08.29-16:00,.56,100.47,.89,98.55,.97,80.88,.99,69.54,.90,71.33,.87,78.05,.78,74.33,.34,75.62,.36,89.39,.18,99.82,.08,38.58,.09,13.62,.01,270.00
2016.08.29-17:00,.58,98.38,.81,97.78,.95,81.14,1.03,70.24,.93,70.25,.86,77.57,.79,74.64,.35,66.34,.34,89.76,.19,99.78,.09,43.94,.10,24.72,.00,270.00
2016.08.29-18:00,.62,95.16,.76,95.13,.92,80.43,1.07,71.33,.97,69.84,.87,76.83,.80,75.03,.39,60.05,.34,89.11,.20,98.41,.10,48.58,.10,35.45,.00,90.00
2016.08.29-19:00,.63,93.38,.71,89.91,.90,78.37,1.09,72.74,1.01,70.43,.88,76.44,.82,75.93,.45,57.90,.34,87.23,.21,96.43,.11,51.54,.11,43.05,.00,90.00
2016.08.29-20:00,.65,89.57,.68,81.88,.88,75.14,1.10,74.61,1.04,72.21,.89,76.77,.84,77.40,.51,58.61,.34,84.37,.22,94.85,.12,53.66,.11,47.89,.01,90.00
2016.08.29-21:00,.70,85.21,.70,72.85,.88,71.45,1.11,76.74,1.06,74.77,.89,77.47,.84,78.93,.55,60.64,.33,80.91,.22,94.45,.12,55.58,.10,50.60,.00,90.00
2016.08.29-22:00,.74,82.66,.75,66.14,.91,68.51,1.10,78.79,1.06,77.52,.89,77.98,.83,80.12,.57,63.67,.32,77.91,.21,95.93,.11,56.44,.09,49.23,.00,90.00
2016.08.29-23:00,.79,80.85,.82,62.62,.96,67.03,1.09,80.45,1.05,79.92,.88,78.04,.80,80.84,.58,67.54,.31,76.06,.21,99.48,.10,55.82,.07,41.15,.01,270.00
2016.08.29-24:00,.83,80.41,.89,61.35,1.01,67.05,1.06,81.54,1.02,81.68,.86,77.69,.77,81.12,.57,71.90,.30,75.61,.19,104.88,.08,53.16,.06,22.54,.01,270.00
2016.08.30-01:00,.86,81.12,.96,61.59,1.06,68.53,1.03,82.15,.98,82.67,.84,77.11,.73,81.03,.55,76.22,.30,76.38,.18,111.36,.06,48.48,.05,359.44,.02,270.00
2016.08.30-02:00,.88,82.38,1.01,62.63,1.09,71.00,1.00,82.39,.93,82.90,.82,76.48,.69,80.66,.52,80.06,.30,78.02,.17,117.36,.04,43.01,.05,348.07,.02,270.00
2016.08.30-03:00,.88,84.08,1.05,63.86,1.10,73.57,.97,82.23,.89,82.28,.81,75.85,.66,79.89,.50,83.06,.31,80.25,.16,120.57,.04,39.91,.05,350.86,.02,270.00
2016.08.30-04:00,.87,86.99,1.08,65.25,1.10,75.73,.95,81.67,.87,80.79,.81,75.07,.64,78.41,.49,84.43,.33,82.14,.16,119.29,.05,41.85,.06,3.18,.02,270.00
2016.08.30-05:00,.85,91.65,1.11,66.98,1.09,77.37,.95,80.99,.86,78.83,.82,74.18,.65,76.22,.49,83.51,.35,82.44,.16,113.51,.07,47.43,.07,21.17,.01,270.00
2016.08.30-06:00,.82,95.07,1.14,68.94,1.08,78.40,.96,80.40,.89,77.00,.85,73.31,.67,73.59,.49,80.63,.37,80.76,.16,104.85,.09,54.19,.08,40.12,.01,270.00
2016.08.30-07:00,.81,95.74,1.18,71.35,1.08,79.02,.98,80.00,.92,75.73,.89,72.60,.71,70.93,.49,77.13,.39,77.97,.18,96.09,.12,58.98,.11,52.72,.00,90.00
2016.08.30-08:00,.82,98.90,1.23,74.23,1.09,79.40,.99,79.65,.95,74.88,.93,71.98,.74,68.38,.50,74.58,.40,75.73,.20,89.66,.14,60.96,.12,57.33,.01,90.00
2016.08.30-09:00,.81,101.80,1.27,76.91,1.10,79.44,.99,79.14,.98,74.32,.96,71.59,.78,66.44,.51,73.91,.41,74.66,.21,86.02,.16,61.01,.13,56.42,.01,90.00
2016.08.30-10:00,.78,102.28,1.27,78.95,1.09,79.15,.98,78.35,.98,73.98,.97,71.76,.81,65.77,.52,75.09,.41,74.12,.22,84.36,.16,60.13,.13,52.22,.01,90.00
2016.08.30-11:00,.71,102.23,1.24,80.70,1.07,78.81,.96,77.08,.98,73.72,.98,72.57,.84,66.32,.52,77.42,.41,73.69,.21,84.41,.15,58.72,.12,45.41,.00,90.00
2016.08.30-12:00,.63,101.62,1.19,82.76,1.05,78.68,.93,75.17,.97,73.35,.98,73.86,.85,67.64,.50,80.08,.40,73.70,.20,86.38,.12,56.26,.10,35.08,.00,270.00
2016.08.30-13:00,.56,99.16,1.12,84.92,1.02,78.58,.92,72.82,.96,73.00,.97,75.65,.86,69.49,.47,82.38,.38,74.83,.18,90.25,.10,51.41,.09,20.84,.01,270.00
2016.08.30-14:00,.48,92.50,1.02,86.40,.99,78.15,.92,70.36,.95,72.71,.95,77.71,.86,71.63,.43,83.61,.37,77.48,.16,95.13,.07,43.55,.08,7.10,.02,270.00